Location: Drocourt
(49.0571°N, 1.7669°E)
Time: 06:54:37
(UTC+00:00)

Okean-O - Pass Details

Date: 09 February 2023
Orbit: 637 x 638 km, 98.1° (Epoch: 30 March)

Event Time Altitude Azimuth Distance (km) Brightness Sun altitude
Exits shadow 18:28:19 18° 51° (NE) 1,566 4.1 -14.4°
Drops below altitude 10° 18:30:53 10° 16° (NNE) 2,043 5.0 -14.8°
Sets 18:33:38 0° 359° (N) 2,958 6.0 -15.3°
